JIA5264 KDFW-KMAF

Flight info

Callsign JIA5264
Flight time 1h 5m
Altitude 34000
Route WSTEX2 DOSXX
Aircraft CRJ7/M-SDFGIRWY/S

Departure

Time 2026-04-30 05:14
Airport Dallas Fort Worth International Airport (KDFW)

Arrival

Time 2026-04-30 06:19
Airport Midland International Air and Space Port (KMAF)
Time Latitude Longitude Altitude Speed Heading
2026-04-30 04:58 32.88741 -97.03780 565 ft 0 kts 359°
2026-04-30 05:05 32.88732 -97.03780 566 ft 2 kts 360°
2026-04-30 05:05 32.88718 -97.03783 566 ft 2 kts 19°
2026-04-30 05:05 32.88705 -97.03790 566 ft 2 kts 38°
2026-04-30 05:06 32.88688 -97.03819 566 ft 2 kts 74°
2026-04-30 05:06 32.88685 -97.03834 566 ft 1 kts 89°
2026-04-30 05:06 32.88685 -97.03836 566 ft 0 kts 89°
2026-04-30 05:07 32.88683 -97.03809 566 ft 7 kts 107°
2026-04-30 05:08 32.88665 -97.03740 566 ft 8 kts 96°
2026-04-30 05:08 32.88674 -97.03656 566 ft 10 kts 55°
2026-04-30 05:08 32.88692 -97.03580 567 ft 9 kts 124°
2026-04-30 05:08 32.88646 -97.03560 568 ft 9 kts 184°
2026-04-30 05:09 32.88616 -97.03562 568 ft 0 kts 182°
2026-04-30 05:09 32.88613 -97.03565 568 ft 0 kts 215°
2026-04-30 05:09 32.88604 -97.03626 566 ft 12 kts 270°
2026-04-30 05:09 32.88604 -97.03749 566 ft 16 kts 270°
2026-04-30 05:10 32.88604 -97.03909 564 ft 21 kts 270°
2026-04-30 05:10 32.88605 -97.04098 565 ft 23 kts 270°
2026-04-30 05:10 32.88605 -97.04277 567 ft 19 kts 270°
2026-04-30 05:10 32.88606 -97.04419 569 ft 15 kts 270°
2026-04-30 05:11 32.88606 -97.04542 572 ft 15 kts 270°
2026-04-30 05:11 32.88606 -97.04693 574 ft 20 kts 270°
2026-04-30 05:11 32.88605 -97.04860 574 ft 12 kts 257°
2026-04-30 05:11 32.88534 -97.04894 573 ft 15 kts 181°
2026-04-30 05:12 32.88401 -97.04894 570 ft 19 kts 180°
2026-04-30 05:12 32.88269 -97.04896 569 ft 18 kts 180°
2026-04-30 05:12 32.88144 -97.04896 567 ft 14 kts 179°
2026-04-30 05:12 32.88041 -97.04897 566 ft 14 kts 180°
2026-04-30 05:13 32.87985 -97.04946 566 ft 8 kts 266°
2026-04-30 05:13 32.87981 -97.05015 565 ft 9 kts 266°
2026-04-30 05:13 32.87991 -97.05098 564 ft 10 kts 321°
2026-04-30 05:13 32.88052 -97.05096 565 ft 10 kts
2026-04-30 05:14 32.88418 -97.05088 571 ft 95 kts
2026-04-30 05:14 32.89323 -97.05091 686 ft 152 kts
2026-04-30 05:14 32.90419 -97.05164 1258 ft 164 kts 357°
2026-04-30 05:14 32.91547 -97.05326 1957 ft 165 kts 358°
2026-04-30 05:15 32.92680 -97.05486 2635 ft 166 kts 358°
2026-04-30 05:15 32.93834 -97.05647 3237 ft 173 kts 358°
2026-04-30 05:15 32.95066 -97.05811 3888 ft 185 kts 357°
2026-04-30 05:15 32.96388 -97.05993 4485 ft 202 kts 351°
2026-04-30 05:16 32.97734 -97.06631 5131 ft 217 kts 336°
2026-04-30 05:16 32.99169 -97.07293 5842 ft 227 kts 339°
2026-04-30 05:16 33.00547 -97.08235 6514 ft 233 kts 308°
2026-04-30 05:16 33.01118 -97.10017 7263 ft 243 kts 272°
2026-04-30 05:17 33.00988 -97.12010 8061 ft 247 kts 267°
2026-04-30 05:17 33.00864 -97.14060 8791 ft 254 kts 267°
2026-04-30 05:17 33.00738 -97.16106 9483 ft 246 kts 268°
2026-04-30 05:17 33.00570 -97.18121 10140 ft 241 kts 264°
2026-04-30 05:18 33.00373 -97.20081 10778 ft 248 kts 265°
2026-04-30 05:18 33.00166 -97.22158 11463 ft 258 kts 264°
2026-04-30 05:18 32.99692 -97.24255 12113 ft 270 kts 250°
2026-04-30 05:18 32.98708 -97.26196 12804 ft 282 kts 236°
2026-04-30 05:19 32.97441 -97.27993 13506 ft 286 kts 236°
2026-04-30 05:19 32.96204 -97.29858 14191 ft 291 kts 237°
2026-04-30 05:19 32.94957 -97.31761 14880 ft 295 kts 237°
2026-04-30 05:19 32.93693 -97.33703 15387 ft 304 kts 237°
2026-04-30 05:20 32.92383 -97.35723 15868 ft 313 kts 238°
2026-04-30 05:20 32.91041 -97.37790 16359 ft 321 kts 237°
2026-04-30 05:20 32.89653 -97.39921 16847 ft 328 kts 238°
2026-04-30 05:20 32.88267 -97.42057 17327 ft 334 kts 238°
2026-04-30 05:21 32.86830 -97.44264 17813 ft 339 kts 238°
2026-04-30 05:21 32.85383 -97.46482 18284 ft 343 kts 238°
2026-04-30 05:21 32.83918 -97.48740 18750 ft 348 kts 238°
2026-04-30 05:21 32.82414 -97.51039 19222 ft 351 kts 238°
2026-04-30 05:22 32.80936 -97.53312 19688 ft 354 kts 238°
2026-04-30 05:22 32.79414 -97.55643 20168 ft 356 kts 238°
2026-04-30 05:22 32.77910 -97.57949 20703 ft 356 kts 238°
2026-04-30 05:22 32.75877 -97.61047 21411 ft 355 kts 239°
2026-04-30 05:23 32.74870 -97.62592 21769 ft 355 kts 239°
2026-04-30 05:23 32.73358 -97.64896 22278 ft 354 kts 239°
2026-04-30 05:23 32.71858 -97.67195 22824 ft 354 kts 238°
2026-04-30 05:23 32.70344 -97.69508 23311 ft 355 kts 238°
2026-04-30 05:24 32.68906 -97.71886 23784 ft 351 kts 245°
2026-04-30 05:24 32.67930 -97.74471 24258 ft 345 kts 256°
2026-04-30 05:24 32.67437 -97.77251 24645 ft 343 kts 266°
2026-04-30 05:24 32.67260 -97.80057 25050 ft 345 kts 267°
2026-04-30 05:25 32.67054 -97.82894 25456 ft 347 kts 267°
2026-04-30 05:25 32.66836 -97.85753 25855 ft 349 kts 267°
2026-04-30 05:25 32.66624 -97.88605 26256 ft 350 kts 266°
2026-04-30 05:25 32.66394 -97.91502 26626 ft 353 kts 266°
2026-04-30 05:26 32.66172 -97.94387 27005 ft 354 kts 266°
2026-04-30 05:26 32.65944 -97.97283 27362 ft 356 kts 266°
2026-04-30 05:26 32.65710 -98.00218 27735 ft 358 kts 266°
2026-04-30 05:26 32.65477 -98.03161 28107 ft 359 kts 266°
2026-04-30 05:27 32.65243 -98.06102 28469 ft 360 kts 266°
2026-04-30 05:27 32.65010 -98.09046 28823 ft 360 kts 266°
2026-04-30 05:27 32.64773 -98.12019 29181 ft 359 kts 266°
2026-04-30 05:27 32.64537 -98.14951 29545 ft 358 kts 267°
2026-04-30 05:28 32.64299 -98.17886 29911 ft 358 kts 267°
2026-04-30 05:28 32.64064 -98.20799 30271 ft 358 kts 267°
2026-04-30 05:28 32.63831 -98.23747 30463 ft 362 kts 267°
2026-04-30 05:28 32.63588 -98.26747 30650 ft 364 kts 267°
2026-04-30 05:29 32.63343 -98.29736 30842 ft 366 kts 268°
2026-04-30 05:29 32.63103 -98.32713 31026 ft 367 kts 267°
2026-04-30 05:29 32.62859 -98.35725 31216 ft 368 kts 266°
2026-04-30 05:29 32.62610 -98.38739 31403 ft 368 kts 268°
2026-04-30 05:30 32.62367 -98.41727 31589 ft 368 kts 267°
2026-04-30 05:30 32.62115 -98.44768 31704 ft 370 kts 267°
2026-04-30 05:30 32.61868 -98.47779 31808 ft 371 kts 268°
2026-04-30 05:30 32.61617 -98.50809 31918 ft 372 kts 267°
2026-04-30 05:31 32.61362 -98.53883 32024 ft 372 kts 267°
2026-04-30 05:31 32.61113 -98.56896 32130 ft 372 kts 268°
2026-04-30 05:31 32.60855 -98.59937 32236 ft 371 kts 268°
2026-04-30 05:31 32.60605 -98.62980 32342 ft 371 kts 268°
2026-04-30 05:32 32.60348 -98.66039 32454 ft 372 kts 267°
2026-04-30 05:32 32.60090 -98.69054 32556 ft 372 kts 267°
2026-04-30 05:32 32.59573 -98.75174 32760 ft 373 kts 267°
2026-04-30 05:33 32.59316 -98.78232 32865 ft 373 kts 267°
2026-04-30 05:33 32.59059 -98.81253 32976 ft 372 kts 267°
2026-04-30 05:33 32.58801 -98.84315 33116 ft 371 kts 267°
2026-04-30 05:33 32.58540 -98.87328 33241 ft 371 kts 267°
2026-04-30 05:34 32.58016 -98.93420 33425 ft 373 kts 267°
2026-04-30 05:34 32.57748 -98.96484 33539 ft 373 kts 267°
2026-04-30 05:34 32.57487 -98.99528 33643 ft 373 kts 267°
2026-04-30 05:35 32.57224 -99.02566 33744 ft 373 kts 267°
2026-04-30 05:35 32.56955 -99.05623 33861 ft 372 kts 267°
2026-04-30 05:35 32.56690 -99.08667 33998 ft 371 kts 267°
2026-04-30 05:35 32.56429 -99.11684 34010 ft 373 kts 267°
2026-04-30 05:36 32.55893 -99.17729 34062 ft 357 kts 267°
2026-04-30 05:36 32.55386 -99.23502 34038 ft 354 kts 267°
2026-04-30 05:37 32.54866 -99.29363 34035 ft 363 kts 267°
2026-04-30 05:37 32.54013 -99.35274 34014 ft 367 kts 258°
2026-04-30 05:38 32.52610 -99.41016 34019 ft 364 kts 259°
2026-04-30 05:38 32.51220 -99.46749 34033 ft 363 kts 259°
2026-04-30 05:39 32.49820 -99.52487 34039 ft 364 kts 259°
2026-04-30 05:39 32.48407 -99.58252 34042 ft 364 kts 259°
2026-04-30 05:40 32.47015 -99.63950 34046 ft 363 kts 258°
2026-04-30 05:40 32.45604 -99.69703 34064 ft 365 kts 258°
2026-04-30 05:41 32.44168 -99.75547 34067 ft 374 kts 258°
2026-04-30 05:41 32.42730 -99.81363 34069 ft 361 kts 258°
2026-04-30 05:42 32.42038 -99.84171 33766 ft 363 kts 258°
2026-04-30 05:42 32.41326 -99.87067 33216 ft 363 kts 258°
2026-04-30 05:42 32.40619 -99.89923 32775 ft 364 kts 258°
2026-04-30 05:42 32.39909 -99.92792 32320 ft 364 kts 258°
2026-04-30 05:43 32.39196 -99.95628 31873 ft 366 kts 256°
2026-04-30 05:43 32.38362 -99.98503 31407 ft 374 kts 256°
2026-04-30 05:43 32.37532 -100.01353 31020 ft 357 kts 255°
2026-04-30 05:43 32.36757 -100.04042 30613 ft 341 kts 255°
2026-04-30 05:44 32.35995 -100.06667 30103 ft 338 kts 256°
2026-04-30 05:44 32.35233 -100.09350 29637 ft 361 kts 255°
2026-04-30 05:44 32.34429 -100.12128 29188 ft 347 kts 255°
2026-04-30 05:44 32.33666 -100.14754 28664 ft 336 kts 255°
2026-04-30 05:45 32.32906 -100.17390 28151 ft 343 kts 255°
2026-04-30 05:45 32.32148 -100.20023 27697 ft 340 kts 254°
2026-04-30 05:45 32.31385 -100.22646 27181 ft 337 kts 255°
2026-04-30 05:45 32.30624 -100.25258 26674 ft 334 kts 255°
2026-04-30 05:46 32.29879 -100.27844 26129 ft 333 kts 255°
2026-04-30 05:46 32.29134 -100.30409 25558 ft 331 kts 255°
2026-04-30 05:46 32.28386 -100.32983 24987 ft 330 kts 254°
2026-04-30 05:46 32.27651 -100.35519 24419 ft 329 kts 254°
2026-04-30 05:47 32.26912 -100.38055 23851 ft 328 kts 254°
2026-04-30 05:47 32.26170 -100.40604 23288 ft 327 kts 254°
2026-04-30 05:47 32.25434 -100.43119 22732 ft 326 kts 254°
2026-04-30 05:47 32.24694 -100.45657 22183 ft 326 kts 253°
2026-04-30 05:48 32.23958 -100.48172 21638 ft 324 kts 254°
2026-04-30 05:48 32.23228 -100.50680 21070 ft 324 kts 254°
2026-04-30 05:48 32.22500 -100.53168 20468 ft 324 kts 253°
2026-04-30 05:48 32.21766 -100.55672 19868 ft 323 kts 253°
2026-04-30 05:49 32.21043 -100.58142 19280 ft 322 kts 253°
2026-04-30 05:49 32.20312 -100.60632 18693 ft 320 kts 253°
2026-04-30 05:49 32.19588 -100.63096 18137 ft 318 kts 253°
2026-04-30 05:49 32.18868 -100.65537 17571 ft 316 kts 253°
2026-04-30 05:50 32.18153 -100.67969 17021 ft 312 kts 253°
2026-04-30 05:50 32.17444 -100.70370 16464 ft 307 kts 253°
2026-04-30 05:50 32.16746 -100.72743 15894 ft 308 kts 253°
2026-04-30 05:50 32.16062 -100.75066 15344 ft 297 kts 254°
2026-04-30 05:51 32.15390 -100.77332 14765 ft 288 kts 254°
2026-04-30 05:51 32.14748 -100.79520 14179 ft 281 kts 254°
2026-04-30 05:51 32.14113 -100.81664 13594 ft 276 kts 254°
2026-04-30 05:51 32.13486 -100.83783 13085 ft 269 kts 255°
2026-04-30 05:52 32.12884 -100.85832 12688 ft 261 kts 254°
2026-04-30 05:52 32.12298 -100.87817 12326 ft 258 kts 254°
2026-04-30 05:52 32.11709 -100.89806 11958 ft 257 kts 253°
2026-04-30 05:52 32.11124 -100.91790 11571 ft 256 kts 253°
2026-04-30 05:53 32.10540 -100.93765 11219 ft 255 kts 253°
2026-04-30 05:53 32.09953 -100.95742 10858 ft 255 kts 253°
2026-04-30 05:53 32.09370 -100.97713 10492 ft 255 kts 253°
2026-04-30 05:53 32.08785 -100.99675 10140 ft 255 kts 252°
2026-04-30 05:54 32.08205 -101.01627 9778 ft 248 kts 252°
2026-04-30 05:54 32.07650 -101.03503 9669 ft 240 kts 251°
2026-04-30 05:54 32.07102 -101.05341 9643 ft 237 kts 251°
2026-04-30 05:54 32.06549 -101.07193 9682 ft 242 kts 252°
2026-04-30 05:55 32.05991 -101.09060 9730 ft 243 kts 251°
2026-04-30 05:55 32.05423 -101.10952 9782 ft 247 kts 252°
2026-04-30 05:55 32.04859 -101.12838 9860 ft 243 kts 252°
2026-04-30 05:55 32.04301 -101.14706 9922 ft 240 kts 252°
2026-04-30 05:56 32.03751 -101.16556 9986 ft 238 kts 252°
2026-04-30 05:56 32.03196 -101.18404 10055 ft 236 kts 252°
2026-04-30 05:56 32.02650 -101.20228 10031 ft 240 kts 252°
2026-04-30 05:56 32.02096 -101.22080 10043 ft 242 kts 252°
2026-04-30 05:57 32.01535 -101.23961 10042 ft 245 kts 252°
2026-04-30 05:57 32.00961 -101.25877 10041 ft 247 kts 252°
2026-04-30 05:57 32.00391 -101.27783 10040 ft 249 kts 252°
2026-04-30 05:57 31.99814 -101.29707 10036 ft 250 kts 252°
2026-04-30 05:58 31.99236 -101.31626 10031 ft 245 kts 252°
2026-04-30 05:58 31.98678 -101.33486 10013 ft 237 kts 252°
2026-04-30 05:58 31.98123 -101.35332 9997 ft 238 kts 252°
2026-04-30 05:58 31.97574 -101.37162 9993 ft 240 kts 252°
2026-04-30 05:59 31.97009 -101.39033 9994 ft 244 kts 252°
2026-04-30 05:59 31.96444 -101.40910 9999 ft 244 kts 252°
2026-04-30 05:59 31.95878 -101.42790 9983 ft 242 kts 252°
2026-04-30 05:59 31.95321 -101.44637 9966 ft 240 kts 252°
2026-04-30 06:00 31.94766 -101.46476 9964 ft 238 kts 252°
2026-04-30 06:00 31.94209 -101.48310 9964 ft 236 kts 252°
2026-04-30 06:00 31.93667 -101.50112 9967 ft 235 kts 252°
2026-04-30 06:00 31.93119 -101.51922 9970 ft 234 kts 252°
2026-04-30 06:01 31.92574 -101.53732 9965 ft 233 kts 252°
2026-04-30 06:01 31.92032 -101.55521 9966 ft 233 kts 252°
2026-04-30 06:01 31.91480 -101.57341 9970 ft 237 kts 252°
2026-04-30 06:01 31.90933 -101.59154 9967 ft 238 kts 252°
2026-04-30 06:02 31.90375 -101.60990 9964 ft 238 kts 252°
2026-04-30 06:02 31.89822 -101.62819 9963 ft 237 kts 252°
2026-04-30 06:02 31.89265 -101.64650 9966 ft 239 kts 252°
2026-04-30 06:02 31.88703 -101.66512 9981 ft 245 kts 251°
2026-04-30 06:03 31.88121 -101.68421 9981 ft 247 kts 251°
2026-04-30 06:03 31.87554 -101.70295 9961 ft 246 kts 251°
2026-04-30 06:03 31.86967 -101.72224 9575 ft 250 kts 251°
2026-04-30 06:03 31.86395 -101.74101 9109 ft 240 kts 251°
2026-04-30 06:04 31.85845 -101.75914 8664 ft 232 kts 251°
2026-04-30 06:04 31.85309 -101.77675 8214 ft 226 kts 250°
2026-04-30 06:04 31.84784 -101.79399 7757 ft 222 kts 250°
2026-04-30 06:05 31.83761 -101.82749 6843 ft 216 kts 249°
2026-04-30 06:05 31.83254 -101.84412 6383 ft 215 kts 249°
2026-04-30 06:05 31.82746 -101.86069 5925 ft 223 kts 248°
2026-04-30 06:05 31.82212 -101.87813 5500 ft 230 kts 249°
2026-04-30 06:06 31.81675 -101.89562 5051 ft 227 kts 249°
2026-04-30 06:06 31.81146 -101.91296 4675 ft 224 kts 249°
2026-04-30 06:06 31.80598 -101.93083 4667 ft 234 kts 248°
2026-04-30 06:06 31.80051 -101.94868 4668 ft 231 kts 248°
2026-04-30 06:07 31.79505 -101.96641 4664 ft 228 kts 249°
2026-04-30 06:07 31.78974 -101.98383 4679 ft 230 kts 249°
2026-04-30 06:07 31.78423 -102.00169 4671 ft 232 kts 248°
2026-04-30 06:07 31.77872 -102.01962 4669 ft 230 kts 249°
2026-04-30 06:08 31.77332 -102.03721 4663 ft 227 kts 248°
2026-04-30 06:08 31.76800 -102.05452 4662 ft 223 kts 249°
2026-04-30 06:08 31.76281 -102.07140 4662 ft 223 kts 249°
2026-04-30 06:08 31.75740 -102.08894 4674 ft 228 kts 249°
2026-04-30 06:09 31.75196 -102.10658 4673 ft 232 kts 249°
2026-04-30 06:09 31.74653 -102.12418 4684 ft 227 kts 249°
2026-04-30 06:09 31.74131 -102.14123 4702 ft 215 kts 249°
2026-04-30 06:09 31.73630 -102.15750 4659 ft 209 kts 249°
2026-04-30 06:10 31.73147 -102.17308 4653 ft 202 kts 249°
2026-04-30 06:10 31.72625 -102.18823 4647 ft 196 kts 239°
2026-04-30 06:10 31.71763 -102.20007 4653 ft 188 kts 216°
2026-04-30 06:10 31.70617 -102.20682 4648 ft 183 kts 193°
2026-04-30 06:11 31.69341 -102.20773 4665 ft 191 kts 173°
2026-04-30 06:11 31.68094 -102.20589 4674 ft 188 kts 172°
2026-04-30 06:11 31.66730 -102.20375 4650 ft 186 kts 169°
2026-04-30 06:11 31.65533 -102.19836 4655 ft 184 kts 146°
2026-04-30 06:12 31.64628 -102.18791 4660 ft 183 kts 123°
2026-04-30 06:12 31.64153 -102.17414 4658 ft 184 kts 101°
2026-04-30 06:12 31.64184 -102.15903 4666 ft 191 kts 78°
2026-04-30 06:12 31.64736 -102.14442 4678 ft 201 kts 56°
2026-04-30 06:13 31.65723 -102.13298 4659 ft 200 kts 35°
2026-04-30 06:13 31.67001 -102.12659 4655 ft 198 kts 13°
2026-04-30 06:13 31.68379 -102.12622 4656 ft 198 kts 351°
2026-04-30 06:13 31.69695 -102.13103 4662 ft 200 kts 340°
2026-04-30 06:14 31.70998 -102.13650 4763 ft 202 kts 341°
2026-04-30 06:14 31.72343 -102.14211 4691 ft 202 kts 341°
2026-04-30 06:14 31.73669 -102.14760 4658 ft 204 kts 341°
2026-04-30 06:14 31.75001 -102.15309 4660 ft 199 kts 341°
2026-04-30 06:15 31.76284 -102.15838 4635 ft 189 kts 341°
2026-04-30 06:15 31.77506 -102.16341 4630 ft 181 kts 340°
2026-04-30 06:15 31.78739 -102.16851 4646 ft 191 kts 340°
2026-04-30 06:15 31.79983 -102.17364 4632 ft 187 kts 340°
2026-04-30 06:16 31.81210 -102.17871 4582 ft 186 kts 340°
2026-04-30 06:16 31.82440 -102.18381 4488 ft 187 kts 340°
2026-04-30 06:16 31.83677 -102.18894 4392 ft 188 kts 341°
2026-04-30 06:16 31.84928 -102.19397 4278 ft 190 kts 346°
2026-04-30 06:17 31.86239 -102.19590 4027 ft 188 kts 358°
2026-04-30 06:17 31.87501 -102.19703 3872 ft 174 kts 357°
2026-04-30 06:17 31.88633 -102.19812 3868 ft 154 kts 356°
2026-04-30 06:17 31.89719 -102.19977 3563 ft 157 kts 355°
2026-04-30 06:18 31.90763 -102.20080 3379 ft 141 kts
2026-04-30 06:18 31.91726 -102.20145 3161 ft 137 kts
2026-04-30 06:18 31.92675 -102.20212 2990 ft 135 kts 359°
2026-04-30 06:18 31.93607 -102.20314 2860 ft 127 kts 359°
2026-04-30 06:19 31.94355 -102.20381 2859 ft 85 kts 355°
2026-04-30 06:19 31.94814 -102.20434 2863 ft 50 kts 355°
2026-04-30 06:19 31.95003 -102.20457 2866 ft 14 kts 355°
2026-04-30 06:19 31.95107 -102.20467 2867 ft 23 kts 355°
2026-04-30 06:20 31.95196 -102.20498 2869 ft 11 kts 313°
2026-04-30 06:20 31.95211 -102.20573 2868 ft 6 kts 268°
2026-04-30 06:20 31.95209 -102.20622 2867 ft 1 kts 266°
2026-04-30 06:20 31.95207 -102.20644 2867 ft 6 kts 255°
2026-04-30 06:21 31.95163 -102.20684 2866 ft 9 kts 186°
2026-04-30 06:21 31.95090 -102.20678 2866 ft 14 kts 177°
2026-04-30 06:21 31.94957 -102.20666 2865 ft 21 kts 175°
2026-04-30 06:21 31.94807 -102.20651 2865 ft 22 kts 174°
2026-04-30 06:22 31.94646 -102.20631 2862 ft 23 kts 175°
2026-04-30 06:22 31.94504 -102.20618 2860 ft 18 kts 175°
2026-04-30 06:22 31.94370 -102.20602 2859 ft 19 kts 173°
2026-04-30 06:22 31.94236 -102.20584 2859 ft 19 kts 176°
2026-04-30 06:23 31.94103 -102.20572 2858 ft 19 kts 176°
2026-04-30 06:23 31.93966 -102.20557 2856 ft 20 kts 176°
2026-04-30 06:23 31.93824 -102.20544 2856 ft 18 kts 176°
2026-04-30 06:23 31.93727 -102.20596 2855 ft 16 kts 225°
2026-04-30 06:24 31.93683 -102.20652 2856 ft 1 kts 228°
2026-04-30 06:24 31.93682 -102.20654 2856 ft 0 kts 228°
2026-04-30 06:24 31.93670 -102.20683 2856 ft 5 kts 262°
2026-04-30 06:24 31.93668 -102.20705 2856 ft 0 kts 265°